Date String (YYYY-MM-DD hh:mm:ss) UTC,Instrument flags,Ambient pressure (hPa),Sample flow (lpm),Bypass flow (lpm),Sample temperature (°C),Ambient temperature (°C),ASC tube jacket temperature (°C),LED temperature (°C),Box temperature (°C),Sample RH (%),Span deviation,Mass concentration (μg/m³),Mass concentration (μg/m³),Mass concentration (μg/m³)
DateTimeUTC,F1_M11,P_M11,Q1_M11,Q2_M11,T1_M11,T2_M11,T3_M11,T4_M11,T5_M11,U1_M11,ZSPAN_M11,X0_M11,X2_M11,X1_M11
2022-10-25 11:00:00,,0820.8,5.01,0.00,22.4,20.9,00.0,31.2,24.3,11.6,0000.0,0002.46,0001.64,0001.40
2022-10-25 11:01:00,,0820.7,5.02,0.00,22.4,20.9,00.0,31.2,24.2,11.7,0000.0,0002.50,0001.64,0001.39
2022-10-25 11:02:00,,0820.7,4.98,0.00,22.4,20.9,00.0,31.2,24.2,11.7,0000.0,0002.60,0001.65,0001.38
2022-10-25 11:03:00,,0820.8,5.00,0.00,22.4,20.9,00.0,31.2,24.3,11.7,0000.0,0002.25,0001.63,0001.37
2022-10-25 11:04:00,,0820.8,5.00,0.00,22.4,20.9,00.0,31.2,24.3,11.7,0000.0,0002.05,0001.56,0001.35
2022-10-25 11:05:00,,0820.8,5.00,0.00,22.4,20.9,00.0,31.2,24.3,11.7,0000.0,0002.00,0001.53,0001.34
2022-10-25 11:06:00,,0820.8,5.03,0.00,22.4,20.9,00.0,31.2,24.3,11.7,0000.0,0002.02,0001.53,0001.33
2022-10-25 11:07:00,,0820.8,5.01,0.00,22.4,20.9,00.0,31.2,24.3,11.7,0000.0,0001.98,0001.51,0001.32
2022-10-25 11:08:00,,0820.9,5.00,0.00,22.4,20.9,00.0,31.2,24.3,11.7,0000.0,0001.90,0001.48,0001.33
2022-10-25 11:09:00,,0820.9,4.99,0.00,22.4,20.9,00.0,31.2,24.3,11.7,0000.0,0002.32,0001.46,0001.32
2022-10-25 11:10:00,,0820.9,5.00,0.00,22.4,20.9,00.0,31.2,24.3,11.7,0000.0,0002.73,0001.43,0001.30
2022-10-25 11:11:00,,0820.9,5.00,0.00,22.4,20.9,00.0,31.2,24.2,11.7,0000.0,0002.78,0001.45,0001.31
2022-10-25 11:12:00,,0820.9,5.00,0.00,22.4,20.9,00.0,31.2,24.2,11.7,0000.0,0002.71,0001.44,0001.32
2022-10-25 11:13:00,,0820.9,5.00,0.00,22.4,20.9,00.0,31.2,24.3,11.7,0000.0,0002.65,0001.43,0001.33
2022-10-25 11:14:00,,0820.9,5.00,0.00,22.4,20.9,00.0,31.2,24.3,11.8,0000.0,0002.79,0001.44,0001.32
2022-10-25 11:15:00,,0820.9,5.00,0.00,22.4,21.0,00.0,31.2,24.3,11.9,0000.0,0002.84,0001.43,0001.30
2022-10-25 11:16:00,,0820.9,5.00,0.00,22.4,21.0,00.0,31.2,24.3,12.0,0000.0,0002.88,0001.44,0001.28
2022-10-25 11:17:00,,0820.9,5.00,0.00,22.4,21.0,00.0,31.2,24.3,11.9,0000.0,0002.84,0001.41,0001.26
2022-10-25 11:18:00,,0820.8,5.00,0.00,22.4,21.0,00.0,31.2,24.3,11.9,0000.0,0002.85,0001.42,0001.26
2022-10-25 11:19:00,,0820.7,5.00,0.00,22.4,20.9,00.0,31.2,24.3,12.0,0000.0,0002.82,0001.40,0001.24
2022-10-25 11:20:00,,0820.8,4.98,0.00,22.4,20.9,00.0,31.2,24.2,12.2,0000.0,0002.49,0001.37,0001.21
2022-10-25 11:21:00,,0820.7,5.02,0.00,22.4,20.9,00.0,31.2,24.2,12.1,0000.0,0001.90,0001.36,0001.20
2022-10-25 11:22:00,,0820.8,5.00,0.00,22.4,20.8,00.0,31.3,24.1,12.2,0000.0,0001.83,0001.32,0001.17
2022-10-25 11:23:00,,0820.9,4.99,0.00,22.4,20.8,00.0,31.2,24.2,12.2,0000.0,0001.80,0001.30,0001.16
2022-10-25 11:24:00,,0820.9,5.00,0.00,22.3,20.8,00.0,31.2,24.1,12.1,0000.0,0001.80,0001.29,0001.14
2022-10-25 11:25:00,,0820.9,5.00,0.00,22.3,20.8,00.0,31.2,24.2,12.2,0000.0,0001.69,0001.27,0001.13
2022-10-25 11:26:00,,0820.9,5.00,0.00,22.3,20.7,00.0,31.2,24.1,12.1,0000.0,0001.65,0001.31,0001.15
2022-10-25 11:27:00,,0820.8,5.00,0.00,22.3,20.7,00.0,31.2,24.1,12.1,0000.0,0001.73,0001.35,0001.18
2022-10-25 11:28:00,,0820.8,5.00,0.00,22.3,20.7,00.0,31.2,24.1,12.1,0000.0,0001.82,0001.40,0001.20
2022-10-25 11:29:00,,0820.9,5.00,0.00,22.3,20.6,00.0,31.2,23.9,12.1,0000.0,0001.83,0001.40,0001.21
2022-10-25 11:30:00,,0820.9,5.00,0.00,22.3,20.6,00.0,31.2,23.9,12.2,0000.0,0002.16,0001.47,0001.22
2022-10-25 11:31:00,,0821.1,5.00,0.00,22.2,20.6,00.0,31.2,23.9,12.3,0000.0,0002.24,0001.50,0001.24
2022-10-25 11:32:00,,0821.2,5.00,0.00,22.2,20.6,00.0,31.2,23.9,12.4,0000.0,0002.41,0001.53,0001.25
2022-10-25 11:33:00,,0821.1,5.00,0.00,22.2,20.6,00.0,31.2,24.0,12.3,0000.0,0002.63,0001.61,0001.26
2022-10-25 11:34:00,,0821.1,5.00,0.00,22.2,20.6,00.0,31.2,24.0,12.3,0000.0,0002.67,0001.63,0001.26
2022-10-25 11:35:00,,0821.2,5.00,0.00,22.2,20.6,00.0,31.1,24.0,12.3,0000.0,0002.73,0001.65,0001.26
2022-10-25 11:36:00,,0821.3,5.00,0.00,22.2,20.6,00.0,31.1,24.0,12.3,0000.0,0002.73,0001.64,0001.25
2022-10-25 11:37:00,,0821.4,4.98,0.00,22.2,20.6,00.0,31.1,24.1,12.3,0000.0,0002.87,0001.61,0001.24
2022-10-25 11:38:00,,0821.4,5.02,0.00,22.2,20.6,00.0,31.1,24.1,12.4,0000.0,0003.45,0001.63,0001.22
2022-10-25 11:39:00,,0821.4,4.97,0.00,22.2,20.6,00.0,31.1,24.0,12.5,0000.0,0003.55,0001.67,0001.20
2022-10-25 11:40:00,,0821.4,4.99,0.00,22.2,20.6,00.0,31.1,24.1,12.4,0000.0,0003.58,0001.68,0001.18
2022-10-25 11:41:00,,0821.6,5.00,0.00,22.2,20.7,00.0,31.1,24.1,12.5,0000.0,0003.40,0001.67,0001.16
2022-10-25 11:42:00,,0821.6,5.00,0.00,22.2,20.7,00.0,31.1,24.2,12.5,0000.0,0003.34,0001.64,0001.13
2022-10-25 11:43:00,,0821.6,5.01,0.00,22.2,20.7,00.0,31.1,24.2,12.5,0000.0,0004.43,0001.63,0001.12
2022-10-25 11:44:00,,0821.6,5.00,0.00,22.2,20.7,00.0,31.1,24.1,12.4,0000.0,0004.49,0001.59,0001.11
2022-10-25 11:45:00,,0821.6,5.00,0.00,22.2,20.7,00.0,31.1,24.1,12.4,0000.0,0004.73,0001.60,0001.10
2022-10-25 11:46:00,,0821.6,5.00,0.00,22.2,20.8,00.0,31.1,24.1,12.4,0000.0,0005.20,0001.60,0001.10
2022-10-25 11:47:00,,0821.6,5.00,0.00,22.2,20.8,00.0,31.1,24.2,12.4,0000.0,0005.40,0001.65,0001.11
2022-10-25 11:48:00,,0821.6,5.00,0.00,22.2,20.8,00.0,31.1,24.2,12.5,0000.0,0005.48,0001.71,0001.11
2022-10-25 11:49:00,,0821.5,5.00,0.00,22.2,20.8,00.0,31.1,24.2,12.5,0000.0,0004.97,0001.67,0001.12
2022-10-25 11:50:00,,0821.5,5.00,0.00,22.3,20.9,00.0,31.1,24.2,12.6,0000.0,0005.23,0001.66,0001.11
2022-10-25 11:51:00,,0821.6,5.00,0.00,22.3,20.9,00.0,31.1,24.2,12.6,0000.0,0005.51,0001.66,0001.10
2022-10-25 11:52:00,,0821.6,5.00,0.00,22.2,20.8,00.0,31.1,24.1,12.6,0000.0,0005.71,0001.68,0001.12
2022-10-25 11:53:00,,0821.4,5.00,0.00,22.3,20.8,00.0,31.1,24.1,12.6,0000.0,0005.78,0001.71,0001.13
2022-10-25 11:54:00,,0821.4,5.02,0.00,22.3,20.8,00.0,31.1,24.2,12.5,0000.0,0004.55,0001.71,0001.14
2022-10-25 11:55:00,,0821.4,4.98,0.00,22.3,20.8,00.0,31.1,24.2,12.5,0000.0,0004.34,0001.68,0001.13
2022-10-25 11:56:00,,0821.5,5.00,0.00,22.3,20.8,00.0,31.1,24.2,12.5,0000.0,0004.07,0001.66,0001.12
2022-10-25 11:57:00,,0821.5,5.01,0.00,22.3,20.8,00.0,31.1,24.2,12.6,0000.0,0003.90,0001.71,0001.11
2022-10-25 11:58:00,,0821.4,4.98,0.00,22.2,20.8,00.0,31.1,24.1,12.6,0000.0,0003.82,0001.69,0001.10
2022-10-25 11:59:00,,0821.5,5.02,0.00,22.2,20.7,00.0,31.1,24.0,12.6,0000.0,0003.57,0001.63,0001.09
